Home   Weather   Prudhoe Bay   Past weeks

Flag for USA Past Weather in Prudhoe Bay, Alaska, USA — Yesterday and Last 2 Weeks

Now
41 °F

Drizzle. Fog.


Feels Like: 34 °F
Forecast: 40 / 47 °F
Wind: 12 mph from West

Location: Deadhorse Airport

Current Time: Aug 18, 2017 at 4:56:36 am

Latest Report: Aug 18, 2017 at 3:53 am


Visibility: 2 mi

Pressure: 29.47 "Hg

Humidity: 100%

Dew Point: 41 °F

Location of Prudhoe BayLocation

Past Weather in Prudhoe Bay — Graph

°F

Prudhoe Bay Temperature Yesterday

Maximum temperature yesterday: 47 °F (at 6:53 pm)
Minimum temperature yesterday: 40 °F (at 1:10 am)
Average temperature yesterday: 43 °F

High & Low Weather Summary for the Past Weeks

 TemperatureHumidityPressure
High67 °F (Aug 7, 1:53 pm)100% (Aug 3, 2:53 am)30.22 "Hg (Aug 3, 2:53 am)
Low34 °F (Aug 16, 2:18 am)67% (Aug 4, 7:53 pm)29.37 "Hg (Aug 15, 4:53 pm)
Average46 °F97%29.79 "Hg
* Reported Aug 3 2:01 am — Aug 18 2:53 am, Prudhoe Bay. Weather by CustomWeather, © 2017

Note: Actual official high and low records may vary slightly from our data, if they occured in-between our weather recording intervals... More about our weather records

Advertising

Prudhoe Bay Weather History for the Previous 24 Hours

Scroll right to see more
 ConditionsComfort  
Time TempWeatherWind HumidityBarometerVisibility
2:53 am
Fri, Aug 18
43 °FFog.9 mph100%29.46 "Hg2 mi
2:21 am44 °FFog.3 mph100%29.45 "Hg2 mi
2:08 am44 °FDrizzle. Fog.3 mph100%29.45 "Hg1 mi
1:40 am44 °FDrizzle. Fog.No wind100%29.45 "Hg1 mi
12:53 am44 °FFog.No wind100%29.44 "Hg1 mi
12:39 am44 °FFog.No wind100%29.44 "Hg2 mi
11:53 pm
Thu, Aug 17
44 °FFog.3 mph100%29.44 "Hg3 mi
11:21 pm44 °FFog.3 mph100%29.44 "Hg3 mi
10:53 pm44 °FFog.3 mph100%29.44 "Hg2 mi
10:01 pm45 °FLow clouds.No wind100%29.44 "Hg10 mi
9:20 pm45 °FOvercast.3 mph100%29.44 "Hg10 mi
8:53 pm45 °FLow clouds.3 mph100%29.44 "Hg10 mi
7:53 pm46 °FLow clouds.No wind96%29.44 "Hg10 mi
6:53 pm47 °FLow clouds.5 mph93%29.44 "Hg10 mi
5:53 pm46 °FLow clouds.No wind96%29.44 "Hg10 mi
4:53 pm45 °FLow clouds.5 mph100%29.44 "Hg10 mi
3:53 pm45 °FLow clouds.5 mph97%29.44 "Hg10 mi
2:53 pm45 °FOvercast.3 mph97%29.44 "Hg10 mi
1:53 pm45 °FLow clouds.5 mph97%29.44 "Hg10 mi
12:53 pm44 °FLow clouds.7 mph100%29.44 "Hg10 mi
11:53 am43 °FLow clouds.9 mph100%29.44 "Hg10 mi
10:53 am42 °FLow clouds.10 mph100%29.43 "Hg10 mi
9:53 am43 °FLow clouds.10 mph100%29.43 "Hg10 mi
8:53 am41 °FFog.12 mph100%29.43 "Hg6 mi
7:53 am40 °FFog.13 mph100%29.42 "Hg3 mi
6:53 am40 °FFog.15 mph100%29.42 "Hg3 mi
6:30 am40 °FFog.16 mph100%29.42 "Hg3 mi
6:03 am40 °FFog.20 mph100%29.42 "Hg2 mi
4:53 am40 °FFog.16 mph100%29.43 "Hg4 mi
Weather by CustomWeather, © 2017

See weather overviewHow to use our weather pages